Welcome to the New NWS' Forecast!
Most changes are behind the scenes, but click here for differences you might notice.

Regional Weather Roundup (RWR)

Issued by Gray - Portland, ME (GYX)

                            
000
ASUS41 KGYX 142010
RWRGYX
WEATHER ROUNDUP FOR MAINE AND NEW HAMPSHIRE
NATIONAL WEATHER SERVICE GRAY ME
400 PM EDT TUE AUG 14 2018

MEZ002-005-006-010-012-015-018-020-021-024-026-027-029-142100-
MAINE
  
CITY           SKY/WX    TMP DP  RH WIND       PRES   REMARKS
PORTLAND       FAIR      72  69  90 E9        29.87F                  
SANFORD        FAIR      79  72  79 VRB6      29.86F                  
BAR HARBOR     CLOUDY    72  68  87 E6        29.89F                  
WISCASSET      CLOUDY    72  70  93 S5        29.90F                  
ROCKLAND       FOG       67  67 100 E3        29.89F VSB 3/4          
FRYEBURG       PTSUNNY   79  73  82 SE6       29.86F                  
LEWISTONAUBURN PTSUNNY   77  71  82 SE6       29.87F                  
AUGUSTA        CLOUDY    75  70  84 SE5       29.88F                  
WATERVILLE     CLOUDY    75  71  87 VRB6      29.86F                  
BANGOR         PTSUNNY   79  71  76 S9        29.87F                  
GREENVILLE       N/A     70  69  97 SE7       29.89F                  
MILLINOCKET    CLOUDY    77  69  76 VRB3      29.88F                  
HOULTON        CLOUDY    76  73  91 CALM      29.86F                  
PRESQUE ISLE   PTSUNNY   82  68  62 S7        29.85F                  
FRENCHVILLE    FAIR      78  66  66 S7        29.86F                  
CARIBOU        PTSUNNY   82  67  60 S9        29.84F                  
$$

NHZ002-005-008-009-011-012-014-142100-
NEW HAMPSHIRE
  
CITY           SKY/WX    TMP DP  RH WIND       PRES   REMARKS
PORTSMOUTH     CLOUDY    75  72  88 VRB5      29.85F                  
ROCHESTER      PTSUNNY   78  73  84 VRB3      29.85F                  
MANCHESTER     NOT AVBL                                               
CONCORD        LGT RAIN  71  68  90 SE9       29.86S FOG              
LACONIA        FAIR      78  68  71 S5        29.87F                  
PLYMOUTH       PTSUNNY   77  68  73 E5        29.84F                  
BERLIN         FAIR      82  69  64 SE8       29.86F                  
WHITEFIELD     FAIR      82  66  58 VRB5      29.85F                  
JAFFREY        NOT AVBL                                               
LEBANON        FAIR      81  68  64 VRB3      29.82F                  
MT WASHINGTON  PTSUNNY   59  54  82 SW18        N/A                   
$$

VTZ005-007-008-142100-
VERMONT
  
CITY           SKY/WX    TMP DP  RH WIND       PRES   REMARKS
ST JOHNSBURY     N/A     80  67  64 MISG      29.81F                  
MONTPELIER     PTSUNNY   80  66  62 S10       29.88F                  
BURLINGTON     PTSUNNY   84  64  50 S8        29.79F                  
$$

MAZ007-012-024-CTZ003-RIZ002-NYZ038-NYZ072-142100-
SOUTHERN NEW ENGLAND AND NY
  
CITY           SKY/WX    TMP DP  RH WIND       PRES   REMARKS
BOSTON         PTSUNNY   78  72  81 N10       29.84F                  
WORCESTER      LGT RAIN  71  70  96 N8        29.87F FOG              
NANTUCKET      FAIR      78  74  87 S10       29.88F                  
PROVIDENCE     PTSUNNY   84  71  65 S13       29.84F                  
HARTFORD       PTSUNNY   86  68  54 S12       29.81F                  
ALBANY         PTSUNNY   84  64  50 S12       29.79F THUNDER          
NEW YORK CITY  TSTM      73  67  81 VRB7G23   29.83R                  
$$

ANZ081-ANZ082-ANZ150-NHZ014-MEZ023>029-142100-
COASTAL MARINE OBSERVATIONS
  
STATION/POSITION TIME  TEMP    WIND        PRES    WAVE
                       AIR SEA DIR/SP/G            HT/PER
                 (UTC) (F)     (DEG/KT/KT) (MB)    (FT/S)
MOUNT DESERT ROC 2000   66     120/  4/  5 1012.3F
MATINICUS ROCK   1900   67     110/  7/  8 1012.1F
ISLE OF SHOALS   1900   69      70/ 11/ 11 1011.2F
JEFFREYS LEDGE   1936      73                N/A     2/ 7
$$

.............KEY..............
   WCI - WIND CHILL
   TC  - TEMPERATURE IN CELSIUS
   VSB - VISIBILITY IN MILES
   HX  - HEAT INDEX
   FAIR- INDICATES FEW OR NO CLOUDS BELOW 12,000 FT, WITH NO 
         SIGNIFICANT WEATHER AND/OR OBSTRUCTIONS TO VISIBILITY.